Location: Alafon
(8.4500°N, 4.2333°E)
Time: 03:00:30
(UTC+00:00)

Vanguard 2 - Pass Details

Date: 06 August 2021
Orbit: 553 x 2937 km, 32.9° (Epoch: 27 September)

Event Time Altitude Azimuth Distance (km) Brightness Sun altitude
Rises 10:02:46 0° 297° (WNW) 3,880 10.9 62.9°
Reaches altitude 10° 10:05:01 10° 295° (WNW) 3,160 10.6 63.4°
Maximum altitude 10:13:10 69° 213° (SSW) 1,816 10.3 65.3°
Drops below altitude 10° 10:27:00 10° 133° (SE) 5,134 12.0 68.4°
Sets 10:31:45 0° 130° (SE) 6,417 12.3 69.5°
